Flag for Nepal Weather past 2 weeks in Pokhara, Nepal

Now
70 °F

Fog.


Feels Like: 70 °F
Forecast: 64 / 87 °F
Wind: No wind

Location: Kathmandu Airport

Current Time: Jul 30, 2014 at 7:28:50 AM

Latest Report: Jul 30, 2014 at 6:35 AM


Visibility: 2 mi

Pressure: 29.89 "Hg

Humidity: 94%

Dew point: 68 °F

Location of PokharaLocation

Historic Weather in Pokhara — Graph

°F

Pokhara temperature yesterday

Maximum temperature yesterday: 84 °F (at 1:35 PM)
Minimum temperature yesterday: 70 °F (at 4:35 AM)
Average temperature yesterday: 76 °F

Past Weeks' High & Low Weather Summary

 TemperatureHumidityPressure
High84 °F (Jul 19, 1:35 PM)100% (Jul 15, 5:35 AM)29.98 "Hg (Jul 15, 5:35 AM)
Low68 °F (Jul 17, 4:35 AM)48% (Jul 27, 1:35 PM)29.62 "Hg (Jul 19, 4:35 PM)
Average75 °F78%29.81 "Hg
* Reported Jul 15 5:35 AM — Jul 30 5:35 AM, Pokhara, Weather by CustomWeather, © 2014

Note: Actual official high and low records may vary slightly from our data, if they occured in-between our weather recording intervals... More about our weather records

Advertising

Pokhara weather history for previous 24 hours

 ConditionsComfort  
Time TempWeatherWind HumidityBarometerVisibility
5:35 AM
Jul 30
70 °FRain. Partly cloudy.No wind94%29.89 "Hg3 mi
4:35 AM68 °FRain. Mostly cloudy.No wind100%29.86 "Hg4 mi
3:35 AM70 °FRain. Mostly cloudy.No wind94%29.86 "Hg4 mi
2:35 AM70 °FRain. Mostly cloudy.No wind94%29.86 "Hg4 mi
1:35 AM70 °FRain. Mostly cloudy.5 mph94%29.86 "Hg4 mi
11:35 PM
Jul 29
72 °FThunderstorms. Partly cloudy.5 mph83%29.86 "Hg4 mi
10:35 PM72 °FThunderstorms. Partly cloudy.5 mph88%29.86 "Hg4 mi
9:35 PM73 °FPartly cloudy.3 mph78%29.86 "Hg4 mi
8:35 PMN/APartly cloudy.8 mphN/AN/A4 mi
7:35 PM75 °FScattered clouds.No wind83%29.80 "Hg4 mi
6:35 PM77 °FBroken clouds.No wind74%29.77 "Hg4 mi
5:35 PM75 °FBroken clouds.3 mph74%29.77 "Hg4 mi
4:35 PM77 °FWarm.10 mph69%29.77 "Hg2 mi
3:35 PM81 °FThunderstorms. Scattered clouds.9 mph51%29.77 "Hg5 mi
2:35 PM82 °FPassing clouds.13 mph58%29.77 "HgN/A
1:35 PM84 °FPassing clouds.5 mph58%29.80 "HgN/A
12:35 PM82 °FScattered clouds.3 mph55%29.80 "HgN/A
11:35 AM82 °FScattered clouds.1 mph51%29.86 "HgN/A
10:35 AM81 °FPassing clouds.3 mph58%29.86 "HgN/A
9:35 AM79 °FScattered clouds.3 mph58%29.86 "HgN/A
8:35 AM75 °FScattered clouds.3 mph74%29.86 "Hg5 mi
7:35 AM72 °FScattered clouds.No wind83%29.86 "Hg6 mi
Weather by CustomWeather, © 2014

See weather overviewHow to use our weather pages